#timestamp,LO_Frequency,Hit,StdDev 
1539180015.4,286046999.3,N
1539180035.2,286046998.2,N
1539180055.1,286046998.7,N
1539180056.0,286046998.7,N
1539180075.8,286046998.8,N
1539180095.6,286046998.4,N
1539180115.5,286047000.3,N
1539180135.3,286046999.7,N
1539180155.2,286047002.0,N
1539180175.9,286047002.0,N
1539180195.7,286047002.0,N
1539180215.6,286047002.3,N
1539180235.4,286047001.1,N
1539180255.2,286046999.8,N
1539180275.1,286047002.8,N
1539180276.0,286047002.8,N
1539180295.8,286047003.9,N
1539180315.7,286047004.0,N
1539180335.5,286047003.4,N
1539180355.3,286047005.6,N
1539180375.2,286047003.9,N
1539180395.0,286047003.1,N
1539180395.9,286047003.1,N
1539180415.8,286047005.9,N
1539180435.6,286047005.6,N
1539180455.4,286047006.9,N
1539180475.3,286047006.7,N
1539180495.1,286047006.6,N
1539180515.8,286047004.5,N
1539180535.7,286047002.9,N
1539180555.5,286047004.7,N
1539180575.4,286047007.3,N
1539180595.2,286047004.8,N
1539180615.0,286047006.3,N
1539180615.9,286047006.3,N
1539180635.8,286047007.6,Y
1539180655.6,286046999.9,P
1539180675.4,286047000.1,N
1539180695.3,286047000.2,N
1539180715.1,286047002.2,N
1539180735.9,286047004.2,N
1539180755.7,286047003.0,N
1539180775.5,286047003.3,N
1539180795.4,286047005.6,Y
1539180815.2,286047002.1,P
1539180835.1,286047002.1,P
1539180836.0,286047002.1,P
1539180855.8,286047001.8,Y
1539180875.6,286047000.9,P
1539180895.5,286046998.1,P
1539180915.3,286046996.9,N
1539180935.1,286046999.1,N
1539180955.9,286046999.6,N
1539180975.7,286046995.5,N
1539180995.6,286046995.3,N
1539181015.4,286046995.3,N
1539181065.3,286046999.4,E
1539181075.2,286047001.2,N
1539181095.0,286047000.0,P
1539181095.9,286047000.0,N
1539181115.8,286047000.0,N
1539181135.6,286046998.4,Y
1539181155.4,286047000.7,P
1539181175.3,286047000.5,N
1539181195.1,286046998.3,P
1539181215.9,286046997.7,N
1539181235.7,286046995.0,Y
1539181255.5,286046996.8,P
1539181275.4,286046997.7,N
1539181295.2,286046997.6,N
1539181315.1,286046996.6,Y
1539181316.0,286046996.6,P
1539181335.8,286047001.0,N
1539181355.6,286047000.6,N
1539181375.5,286046998.6,N
1539181395.3,286047000.3,N
1539181415.1,286047000.7,N
1539181435.9,286046998.3,N
1539181455.7,286046998.7,N
1539181475.6,286046998.1,N
1539181495.4,286046999.3,N
1539181515.2,286046998.9,N
1539181535.1,286046999.2,N
1539181536.0,286046999.2,N
1539181555.8,286046999.0,N
1539181575.6,286046998.2,N
1539181595.5,286046998.1,N
1539181615.3,286047001.2,N
1539181635.2,286047001.9,N
1539181655.9,286047001.5,N
1539181675.7,286047003.7,N
1539181695.6,286047003.9,N
1539181715.4,286047001.8,N
1539181735.2,286047002.1,N
1539181755.1,286047001.4,N
1539181756.0,286047001.4,N
1539181775.8,286047003.9,N
1539181795.7,286047001.5,N
1539181815.5,286047003.6,N
1539181835.3,286047005.0,N
1539181855.2,286047005.0,N
1539181875.0,286047006.5,N
1539181875.9,286047006.5,N
1539181895.7,286047009.2,Y
1539181915.6,286047006.8,P
1539181935.4,286047006.2,N
1539181955.3,286047006.4,N
1539181975.1,286047007.3,Y
1539181995.8,286047002.2,P
1539182015.7,286047002.4,N
1539182035.5,286047000.2,N
1539182055.4,286047001.2,N
1539182075.2,286047001.0,N
1539182095.0,286047002.8,N
1539182095.9,286047002.8,N
1539182115.8,286047002.0,N
1539182135.6,286047002.6,N
1539182155.4,286047005.5,Y
1539182175.3,286047004.2,P
1539182195.1,286047005.1,P
1539182215.9,286047004.9,P
1539182235.7,286047005.3,Y
1539182255.5,286046998.2,P
1539182275.4,286047000.1,N
1539182295.2,286047000.4,N
1539182315.1,286047001.0,N
1539182316.0,286047001.0,N
1539182335.8,286047002.5,N
1539182355.6,286047004.3,N
1539182375.5,286047001.6,N
1539182395.3,286047004.1,N
1539182415.1,286047001.6,N
1539182435.9,286047004.0,N
1539182455.7,286047004.2,N
1539182475.6,286047004.1,N
1539182495.4,286047005.3,N
1539182515.2,286047005.5,N
1539182535.1,286047001.3,N
1539182536.0,286047001.3,N
1539182555.8,286047001.9,N
1539182575.6,286047001.4,N
1539182595.5,286047004.3,N
1539182615.3,286047002.9,N
1539182635.2,286047004.3,N
1539182655.9,286047001.6,N
1539182675.7,286047002.5,N
1539182695.6,286047002.5,N
1539182715.4,286047000.5,N
1539182735.2,286047002.0,N
1539182755.1,286047001.6,N
1539182756.0,286047001.6,N
1539182775.8,286047002.0,N
1539182795.7,286047002.7,N
1539182815.5,286047000.1,N
1539182835.3,286046999.7,N
1539182855.2,286047002.5,N
1539182875.0,286047000.1,N
1539182875.9,286047000.1,N
1539182895.8,286047001.4,N
1539182915.6,286047002.0,N
1539182935.4,286047000.1,N
1539182955.3,286047004.4,N
1539182975.1,286047001.5,N
1539182995.8,286047005.6,Y
1539183015.7,286047002.5,P
1539183035.5,286047003.2,P
1539183055.4,286047003.8,P
1539183075.2,286047001.3,N
1539183095.0,286047003.3,Y
1539183095.9,286047003.3,P
1539183115.8,286047001.9,P
1539183135.6,286047001.8,P
1539183155.5,286047004.2,Y
1539183175.3,286047000.3,P
1539183195.1,286046999.9,N
1539183215.9,286047002.8,N
1539183235.7,286047002.4,N
1539183255.5,286047004.3,Y
1539183275.4,286047000.6,P
1539183295.2,286047000.8,N
1539183315.1,286047000.6,N
1539183316.0,286047000.6,N
1539183335.8,286046999.9,N
1539183355.6,286047000.8,N
1539183375.5,286046998.4,Y
1539183395.3,286046996.8,P
1539183415.2,286046996.6,N
1539183435.9,286046996.9,N
1539183455.7,286046995.3,N
1539183475.6,286046995.5,N
1539183495.4,286046995.4,N
1539183515.2,286046999.6,N
1539183535.1,286046998.6,N
1539183536.0,286046998.6,N
1539183555.8,286047000.8,N
1539183575.7,286047000.9,N
1539183595.5,286047002.7,N
